IUS R/B(1), 25868

Orbit data source: Space-Track

IUS R/B(1), 25868 is space debris originally from a launch on Fri, 23 Jul 1999 UTC launched from the Air Force Eastern Test Range (AFETR). Debris objects in space refer to the collection of defunct objects orbiting the Earth. Examples of debris include non-operational satellites, rocket bodies, and fragments generated from explosions, collisions, or faulty payload assembly.

Loading next visibility...
Identifier
25868, 1999-040C
Orbit
Active
Country
Flag of USUS
Related business
Manufacturer
PW CSD
Mission
Spacecraft
Bus & Motor
ORBUS 21, ORBUS 21
Mass
1,164 kg wet, 1,164 kg dry
Launch date (UTC)
1999-07-23 (27 years ago)
Launch vehicle
Unknown
Launch site
Air Force Eastern Test Range (AFETR)
Object type
Payload
Rocket body
Debris
Shape & HBR
Cyl, 2.1 m
Radar Cross Section
8.491 m², Large (>1 m²)

Expand to show TLE details & history
Last TLE update: 22 hours ago

TLE from 22 hours ago
0 IUS R/B(1)
1 25868U 99040C   26265.03412084  .00018560  00000-0  61696-3 0  9995
2 25868  28.4619 247.5336 4318566 138.8150 263.4695  6.91196333620330
Epoch: 2026-09-22T00:49Z
TLE epoch observation values (Epoch: 2026-09-22T00:49:08.040Z)
Latitude
-0.00001°
Longitude
-125.65531°
Altitude
7,646.497 km
Speed
4.755 km/s
True Right ascension
16h 30m 08s
True Declination
0° 00' 00"
Sunlit
Object was in daylight at epoch
Visualization orbit readout
Latitude
Unknown
Longitude
Unknown
Altitude
Unknown
Speed
Unknown
Apparent Right ascension
Unknown
Apparent Declination
Unknown
Sunlit
N/A
Visualization observer readout
Local Sidereal Time
16:02:03
Azimuth
Unknown
Elevation
Unknown
Doppler factor
Unknown
Orbital elements
Apogee altitude
10,295.392 km
Perigee altitude
237.718 km
Semi-major axis
11,644.692 km
Eccentricity
0.43186
Inclination
28.4619°
RAAN
247.5336°
Arg. of periapsis
138.815°
True anomaly
221.22705°
Mean anomaly
263.4695°
Eccentric anomaly
241.68618°
Mean motion
1.72723 °/min
Orbital period
208.43 mins
BSTAR
0.00061696
Loading maneuver chart data...
Computing Atmospheric mass density...
Loading historical data...
Loading historical data...
Loading historical data...
Loading historical data...
Loading historical data...
Loading historical data...
Loading historical data...

Documentation

Showing up to 5 results
|